Location: Izdebno
(52.6670°N, 16.2170°E)
Time: 03:32:57
(UTC+02:00)

Transit 2A - Pass Details

Date: 25 February 2024
Orbit: 596 x 956 km, 66.7° (Epoch: 21 April)

Event Time Altitude Azimuth Distance (km) Brightness Sun altitude
Rises 00:53:01 0° 312° (NW) 2,884 - -45.8°
Reaches altitude 10° 00:56:04 10° 335° (NNW) 2,015 - -45.6°
Maximum altitude 00:58:52 16° 14° (NNE) 1,700 - -45.5°
Drops below altitude 10° 01:01:46 10° 52° (NE) 2,114 - -45.4°
Sets 01:05:05 0° 74° (ENE) 3,103 - -45.2°
